Flag for United Kingdom Weather past 2 weeks in Liverpool, England, United Kingdom

Now
57 °F

Passing clouds.


Feels Like: 54 °F
Forecast: 57 / 65 °F
Wind: 15 mph from West

Location: Liverpool Airport

Current Time: Aug 30, 2014 at 3:47:17 AM

Latest Report: Aug 30, 2014 at 3:20 AM


Visibility: N/A

Pressure: 29.83 "Hg

Humidity: 88%

Dew point: 54 °F

Location of LiverpoolLocation

Historic Weather in Liverpool — Graph

°F

Liverpool temperature yesterday

Maximum temperature yesterday: 63 °F (at 12:50 PM)
Minimum temperature yesterday: 57 °F (at 3:50 AM)
Average temperature yesterday: 60 °F

Past Weeks' High & Low Weather Summary

 TemperatureHumidityPressure
High68 °F (Aug 15, 2:50 PM)100% (Aug 15, 6:50 AM)30.15 "Hg (Aug 15, 6:50 AM)
Low46 °F (Aug 27, 3:50 AM)46% (Aug 28, 3:50 PM)29.56 "Hg (Aug 25, 6:50 PM)
Average58 °F77%29.87 "Hg
* Reported Aug 15 2:20 AM — Aug 30 2:50 AM, Liverpool, Weather by CustomWeather, © 2014

Note: Actual official high and low records may vary slightly from our data, if they occured in-between our weather recording intervals... More about our weather records

Advertising

Liverpool weather history for previous 24 hours

 ConditionsComfort  
Time TempWeatherWind HumidityBarometerVisibility
2:50 AM
Aug 30
57 °FPassing clouds.13 mph88%29.80 "HgN/A
2:20 AM59 °FPassing clouds.15 mph82%29.80 "HgN/A
1:50 AM59 °FPassing clouds.13 mph82%29.80 "HgN/A
1:20 AM59 °FPassing clouds.9 mph82%29.80 "HgN/A
12:50 AM59 °FPassing clouds.13 mph77%29.80 "HgN/A
12:20 AM59 °FPassing clouds.13 mph82%29.77 "HgN/A
11:50 PM
Aug 29
59 °FPassing clouds.17 mph82%29.77 "HgN/A
11:20 PM59 °FScattered showers. Passing clouds.17 mph88%29.77 "HgN/A
10:50 PM59 °FPartly cloudy.16 mph94%29.77 "Hg6 mi
10:20 PM59 °FPartly cloudy.15 mph94%29.77 "Hg6 mi
8:20 PM61 °FMixture of precip. Scattered clouds.9 mph94%29.74 "HgN/A
7:50 PM61 °FScattered showers. Scattered clouds.9 mph94%29.74 "HgN/A
7:20 PM61 °FSprinkles. Partly sunny.10 mph94%29.74 "Hg6 mi
6:50 PM61 °FScattered showers. Partly sunny.7 mph94%29.74 "HgN/A
6:20 PM61 °FScattered showers. Partly sunny.9 mph94%29.74 "HgN/A
5:50 PM61 °FLight rain. Partly sunny.13 mph94%29.74 "Hg4 mi
5:20 PM63 °FLight rain. Partly sunny.15 mph83%29.74 "HgN/A
4:50 PM63 °FSprinkles. Scattered clouds.13 mph83%29.74 "HgN/A
4:20 PM63 °FSprinkles. Scattered clouds.13 mph83%29.74 "HgN/A
3:50 PM63 °FSprinkles. Scattered clouds.12 mph83%29.74 "HgN/A
3:20 PM63 °FSprinkles. Scattered clouds.14 mph77%29.74 "HgN/A
2:50 PM63 °FSprinkles. Scattered clouds.14 mph77%29.74 "HgN/A
2:20 PM63 °FScattered clouds.14 mph77%29.74 "HgN/A
1:50 PM63 °FPartly sunny.13 mph77%29.74 "HgN/A
1:20 PM63 °FPartly sunny.14 mph77%29.74 "HgN/A
12:50 PM63 °FPassing clouds.17 mph77%29.74 "HgN/A
12:20 PM61 °FScattered showers. Passing clouds.21 mph83%29.74 "HgN/A
11:50 AM61 °FScattered showers. Passing clouds.17 mph83%29.74 "HgN/A
11:20 AM61 °FScattered showers. Scattered clouds.17 mph83%29.74 "HgN/A
10:50 AM61 °FScattered showers. Scattered clouds.18 mph83%29.74 "HgN/A
10:20 AM61 °FSprinkles. Scattered clouds.17 mph83%29.74 "HgN/A
9:50 AM59 °FSprinkles. Scattered clouds.17 mph94%29.74 "HgN/A
9:20 AM59 °FSprinkles. Partly sunny.18 mph88%29.74 "HgN/A
8:50 AM59 °FSprinkles. Partly sunny.16 mph82%29.74 "HgN/A
8:20 AM59 °FSprinkles. Scattered clouds.16 mph82%29.71 "Hg6 mi
7:50 AM59 °FSprinkles. Scattered clouds.14 mph82%29.71 "HgN/A
7:20 AM59 °FScattered clouds.10 mph82%29.71 "HgN/A
6:50 AM59 °FPassing clouds.15 mph82%29.71 "HgN/A
6:20 AM59 °FPassing clouds.16 mph77%29.71 "HgN/A
5:50 AM59 °FPassing clouds.15 mph77%29.71 "HgN/A
5:20 AM61 °FPassing clouds.15 mph72%29.71 "HgN/A
4:50 AM59 °FPassing clouds.14 mph77%29.71 "HgN/A
4:20 AM61 °FPassing clouds.16 mph72%29.71 "HgN/A
3:50 AM57 °FPassing clouds.8 mph88%29.71 "HgN/A
3:20 AM59 °FPassing clouds.12 mph82%29.71 "HgN/A
Weather by CustomWeather, © 2014

See weather overviewHow to use our weather pages